When you browse on this site, cookies collect data to enhance your experience and personalize the content and advertising you see.
Visit our Privacy Policy to learn more. By continuing to use the site, you agree to this use of cookies and data.
  • In Sweden
  • List of Countries
  • For 7 days
  • Water Temperature
  • Satellite Maps
  • Weather Map
  • Weather Widgets
  • user-avatar
    Login

    Hourly Weather Popow

    Today, 22 July, Monday

    Time Temperature Precipitation Wind Pressure Humidity
    00:00 +18°C° 0 mm 3 mps 757 mmHg 88%
    01:00 +17°C° 0 mm 3 mps 757 mmHg 91%
    02:00 +17°C° 0 mm 3 mps 757 mmHg 92%
    03:00 +16°C° 0 mm 3 mps 757 mmHg 93%
    04:00 +16°C° 0 mm 2 mps 758 mmHg 94%
    05:00 +17°C° 0 mm 3 mps 758 mmHg 88%
    06:00 +19°C° 0 mm 3 mps 758 mmHg 81%
    07:00 +20°C° 0 mm 3 mps 758 mmHg 75%
    08:00 +21°C° 0 mm 4 mps 758 mmHg 71%
    09:00 +22°C° 0 mm 5 mps 758 mmHg 66%
    10:00 +23°C° 0 mm 5 mps 759 mmHg 62%
    11:00 +25°C° 0 mm 5 mps 758 mmHg 59%
    12:00 +24°C° 0 mm 6 mps 758 mmHg 56%
    13:00 +26°C° 0 mm 6 mps 758 mmHg 53%
    14:00 +24°C° 0 mm 6 mps 758 mmHg 53%
    15:00 +24°C° 0 mm 6 mps 758 mmHg 54%
    16:00 +24°C° 0 mm 6 mps 758 mmHg 54%
    17:00 +23°C° 0 mm 5 mps 758 mmHg 59%
    18:00 +22°C° 0 mm 4 mps 757 mmHg 63%
    19:00 +21°C° 0 mm 3 mps 757 mmHg 67%
    20:00 +20°C° 0 mm 3 mps 757 mmHg 68%
    21:00 +19°C° 0 mm 3 mps 758 mmHg 70%
    22:00 +18°C° 0 mm 3 mps 758 mmHg 71%
    23:00 +18°C° 0 mm 3 mps 758 mmHg 73%

    Tomorrow, 23 July, Tuesday

    Time Temperature Precipitation Wind Pressure Humidity
    00:00 +17°C° 0 mm 3 mps 758 mmHg 75%
    01:00 +17°C° 0 mm 2 mps 758 mmHg 78%
    02:00 +17°C° 0 mm 2 mps 758 mmHg 78%
    03:00 +17°C° 0 mm 2 mps 758 mmHg 79%
    04:00 +16°C° 0 mm 1 mps 758 mmHg 79%
    05:00 +17°C° 0 mm 2 mps 758 mmHg 78%
    06:00 +17°C° 0 mm 2 mps 758 mmHg 77%
    07:00 +18°C° 0 mm 2 mps 757 mmHg 75%
    08:00 +18°C° 0 mm 2 mps 758 mmHg 76%
    09:00 +18°C° 0 mm 3 mps 758 mmHg 76%
    10:00 +18°C° 0 mm 3 mps 758 mmHg 76%
    11:00 +18°C° 0 mm 3 mps 758 mmHg 76%
    12:00 +18°C° 0 mm 3 mps 757 mmHg 75%
    13:00 +18°C° 0 mm 3 mps 757 mmHg 75%
    14:00 +18°C° 0 mm 3 mps 757 mmHg 77%
    15:00 +18°C° 0 mm 3 mps 757 mmHg 79%
    16:00 +18°C° 0 mm 3 mps 757 mmHg 80%
    17:00 +18°C° 0 mm 2 mps 757 mmHg 82%
    18:00 +19°C° 0 mm 1 mps 756 mmHg 83%
    19:00 +19°C° 0 mm 1 mps 756 mmHg 85%
    20:00 +19°C° 0 mm 1 mps 756 mmHg 85%
    21:00 +19°C° 0 mm 1 mps 757 mmHg 86%
    22:00 +19°C° 0 mm 1 mps 757 mmHg 86%
    23:00 +19°C° 0 mm 1 mps 757 mmHg 87%

    Day after tomorrow, 24 July, Wednesday

    Time Temperature Precipitation Wind Pressure Humidity
    00:00 +19°C° 0 mm 1 mps 757 mmHg 89%
    01:00 +19°C° 0 mm 1 mps 756 mmHg 90%
    02:00 +19°C° 0 mm 1 mps 756 mmHg 90%
    03:00 +19°C° 0 mm 1 mps 756 mmHg 91%
    04:00 +19°C° 0 mm 1 mps 756 mmHg 91%
    05:00 +20°C° 0.1 mm 1 mps 756 mmHg 89%
    06:00 +21°C° 0.1 mm 1 mps 756 mmHg 86%
    07:00 +21°C° 0.1 mm 1 mps 756 mmHg 84%
    08:00 +22°C° 0.1 mm 1 mps 756 mmHg 81%
    09:00 +23°C° 0.1 mm 1 mps 756 mmHg 78%
    10:00 +23°C° 0.1 mm 1 mps 756 mmHg 74%
    11:00 +24°C° 0.1 mm 2 mps 756 mmHg 70%
    12:00 +25°C° 0.1 mm 2 mps 756 mmHg 66%
    13:00 +26°C° 0.1 mm 2 mps 756 mmHg 61%
    14:00 +26°C° 0 mm 2 mps 756 mmHg 59%
    15:00 +27°C° 0 mm 2 mps 756 mmHg 57%
    16:00 +28°C° 0 mm 2 mps 756 mmHg 55%
    17:00 +26°C° 0 mm 2 mps 756 mmHg 60%
    18:00 +25°C° 0 mm 1 mps 756 mmHg 65%
    19:00 +24°C° 0 mm 1 mps 756 mmHg 70%
    20:00 +23°C° 0 mm 1 mps 756 mmHg 74%
    21:00 +20°C° 0 mm 0 mps 756 mmHg 78%
    22:00 +19°C° 0 mm 0 mps 757 mmHg 82%
    23:00 +19°C° 0 mm 0 mps 757 mmHg 83%

    25 July, Thursday

    Time Temperature Precipitation Wind Pressure Humidity
    00:00 +18°C° 0 mm 0 mps 757 mmHg 85%
    01:00 +18°C° 0 mm 0 mps 757 mmHg 86%
    02:00 +17°C° 0 mm 0 mps 757 mmHg 87%
    03:00 +17°C° 0 mm 0 mps 757 mmHg 88%
    04:00 +17°C° 0 mm 0 mps 757 mmHg 89%
    05:00 +20°C° 0 mm 1 mps 757 mmHg 84%
    06:00 +22°C° 0 mm 1 mps 757 mmHg 80%
    07:00 +23°C° 0 mm 1 mps 758 mmHg 75%
    08:00 +25°C° 0.1 mm 1 mps 758 mmHg 70%
    09:00 +26°C° 0.1 mm 2 mps 758 mmHg 65%
    10:00 +27°C° 0.1 mm 2 mps 758 mmHg 60%
    11:00 +28°C° 0.1 mm 2 mps 758 mmHg 58%
    12:00 +28°C° 0.1 mm 2 mps 757 mmHg 55%
    13:00 +29°C° 0.1 mm 2 mps 757 mmHg 52%
    14:00 +29°C° 0 mm 2 mps 757 mmHg 53%
    15:00 +29°C° 0 mm 3 mps 757 mmHg 55%
    16:00 +28°C° 0 mm 3 mps 757 mmHg 56%
    17:00 +27°C° 0 mm 3 mps 757 mmHg 60%
    18:00 +26°C° 0 mm 2 mps 757 mmHg 64%
    19:00 +25°C° 0 mm 2 mps 757 mmHg 68%
    20:00 +24°C° 0 mm 2 mps 757 mmHg 70%
    21:00 +23°C° 0 mm 2 mps 757 mmHg 72%
    22:00 +21°C° 0 mm 3 mps 757 mmHg 73%
    23:00 +20°C° 0 mm 2 mps 757 mmHg 76%

    26 July, Friday

    Time Temperature Precipitation Wind Pressure Humidity
    00:00 +20°C° 0 mm 2 mps 758 mmHg 79%
    01:00 +19°C° 0 mm 2 mps 758 mmHg 82%
    02:00 +19°C° 0 mm 2 mps 757 mmHg 84%
    03:00 +18°C° 0 mm 2 mps 757 mmHg 87%
    04:00 +18°C° 0 mm 2 mps 757 mmHg 89%
    05:00 +19°C° 0 mm 3 mps 757 mmHg 84%
    06:00 +21°C° 0 mm 3 mps 757 mmHg 78%
    07:00 +22°C° 0 mm 3 mps 757 mmHg 73%
    08:00 +25°C° 0 mm 3 mps 757 mmHg 67%
    09:00 +26°C° 0 mm 4 mps 757 mmHg 61%
    10:00 +28°C° 0 mm 4 mps 757 mmHg 55%
    11:00 +29°C° 0 mm 4 mps 757 mmHg 53%
    12:00 +29°C° 0 mm 4 mps 756 mmHg 51%
    13:00 +30°C° 0 mm 4 mps 756 mmHg 49%
    14:00 +30°C° 0 mm 4 mps 756 mmHg 49%
    15:00 +30°C° 0 mm 4 mps 755 mmHg 48%
    16:00 +30°C° 0 mm 4 mps 755 mmHg 48%
    17:00 +29°C° 0 mm 4 mps 755 mmHg 54%
    18:00 +28°C° 0 mm 3 mps 754 mmHg 60%
    19:00 +26°C° 0 mm 3 mps 754 mmHg 66%
    20:00 +25°C° 0 mm 3 mps 754 mmHg 69%
    21:00 +24°C° 0 mm 3 mps 754 mmHg 71%
    22:00 +22°C° 0 mm 3 mps 755 mmHg 73%
    23:00 +21°C° 0 mm 3 mps 754 mmHg 75%

    27 July, Saturday

    Time Temperature Precipitation Wind Pressure Humidity
    00:00 +21°C° 0 mm 3 mps 754 mmHg 78%
    01:00 +20°C° 0 mm 3 mps 754 mmHg 80%
    02:00 +20°C° 0 mm 3 mps 754 mmHg 81%
    03:00 +19°C° 0 mm 3 mps 754 mmHg 81%
    04:00 +19°C° 0 mm 3 mps 754 mmHg 82%
    05:00 +20°C° 0 mm 4 mps 753 mmHg 79%
    06:00 +21°C° 0 mm 4 mps 753 mmHg 75%
    07:00 +23°C° 0 mm 4 mps 753 mmHg 71%
    08:00 +26°C° 0 mm 4 mps 753 mmHg 66%
    09:00 +27°C° 0 mm 5 mps 753 mmHg 61%
    10:00 +29°C° 0 mm 5 mps 753 mmHg 56%
    11:00 +30°C° 0 mm 5 mps 752 mmHg 52%
    12:00 +30°C° 0 mm 5 mps 752 mmHg 49%
    13:00 +32°C° 0 mm 5 mps 752 mmHg 46%
    14:00 +32°C° 0 mm 5 mps 751 mmHg 46%
    15:00 +32°C° 0 mm 5 mps 751 mmHg 47%
    16:00 +32°C° 0 mm 5 mps 751 mmHg 47%
    17:00 +30°C° 0 mm 5 mps 750 mmHg 52%
    18:00 +28°C° 0 mm 4 mps 750 mmHg 58%
    19:00 +27°C° 0 mm 4 mps 750 mmHg 64%
    20:00 +26°C° 0 mm 4 mps 750 mmHg 66%
    21:00 +25°C° 0 mm 4 mps 750 mmHg 68%
    22:00 +23°C° 0 mm 4 mps 750 mmHg 70%
    23:00 +22°C° 0 mm 4 mps 750 mmHg 74%
    Show more